Probability
94 100 100 100 100 100 100 100 100 100 100 100 97 97 97 97 94 94 94 94 94 94 90 87 94 94 90 90 90 87 90 87 81 71 77 71 71 84 87 84 81 61 90
94 100 100 100 100 100 100 100 100 100 100 100 97 97 100 100 100 97 94 94 94 87 87 87 94 94 90 90 90 87 87 90 90 81 90 84 87 84 84 94 90 77 94
94 100 100 100 100 100 100 100 100 100 100 100 100 100 97 97 100 100 94 90 87 87 87 84 90 87 87 87 87 90 90 90 84 81 71 48 81 87 90 84 87 87 87
97 100 100 100 100 100 100 100 100 100 100 100 100 100 97 97 97 100 97 94 90 90 87 87 87 90 84 87 84 87 87 90 87 71 16 26 48 87 90 87 90 90 87
94 97 100 100 100 100 100 100 100 100 100 100 100 100 97 97 97 94 94 97 90 87 90 87 90 84 87 90 84 84 81 90 87 39 19 29 61 94 87 90 84 90 87
84 94 100 100 100 100 100 100 100 100 100 100 100 100 97 97 94 97 94 87 90 84 87 87 84 81 77 87 87 77 81 77 55 16 19 42 71 97 90 87 90 90 90
87 94 97 100 100 100 100 100 100 100 100 100 100 100 100 94 94 94 94 90 84 87 84 84 81 74 71 74 90 84 84 71 26 16 23 45 87 97 90 90 90 84 81
81 94 94 97 97 100 100 100 100 100 97 97 97 94 94 94 94 90 94 90 87 81 84 77 71 68 68 74 81 81 90 77 39 23 19 55 84 97 90 94 97 90 81
84 87 90 94 94 97 97 100 100 100 100 100 100 97 97 94 90 90 87 84 81 77 77 68 65 65 61 68 74 87 87 74 6 16 16 65 94 97 94 94 94 94 87
81 81 84 84 87 87 94 97 97 97 100 100 100 97 97 97 87 94 100 94 81 74 77 68 61 55 61 65 74 87 81 45 3 19 23 77 94 90 90 94 90 90 87
68 74 77 81 77 81 81 94 94 94 97 94 94 94 87 61 58 77 81 87 77 81 77 74 61 58 58 68 84 84 42 0 13 16 26 84 94 90 90 87 90 90 87
45 52 52 58 65 58 74 77 68 71 68 61 61 65 42 29 32 55 74 87 84 81 81 81 81 71 55 16 23 42 13 0 13 16 39 84 90 94 94 87 81 87 87
35 39 39 45 35 35 45 48 45 39 39 39 42 35 26 23 16 39 42 58 58 61 45 58 65 39 35 19 13 13 6 13 6 16 32 84 84 90 90 94 87 84 84
35 35 42 42 39 35 35 35 35 35 32 29 32 26 19 19 10 13 16 16 16 10 16 13 23 19 19 16 16 13 10 10 10 13 26 81 87 90 94 90 94 87 90
23 26 32 35 32 35 35 35 32 32 32 29 23 19 19 16 3 6 3 3 3 6 10 6 3 6 6 6 10 10 10 16 13 16 19 74 87 87 90 87 87 90 87
23 23 23 26 32 29 26 23 23 26 26 26 23 19 10 6 3 3 3 3 3 3 3 3 3 3 3 3 3 3 6 13 13 6 16 55 87 87 87 90 90 87 87
19 19 23 19 23 19 16 16 23 19 26 23 16 13 10 6 3 3 3 3 3 3 3 3 3 3 3 3 3 3 3 6 13 10 10 29 45 87 87 90 90 94 94
19 16 19 26 19 16 16 16 13 13 10 10 10 10 6 3 3 6 6 3 3 3 3 0 0 3 3 3 0 3 3 0 0 10 13 16 26 42 68 84 87 90 94
19 19 16 23 16 13 13 13 10 10 6 3 3 3 3 3 0 0 0 0 0 0 0 0 0 0 0 0 0 0 0 0 0 0 10 13 13 19 29 52 87 84 87
10 19 19 16 6 3 6 6 0 0 3 3 3 3 6 3 0 0 0 0 0 0 0 0 0 0 0 0 0 0 0 0 0 0 3 6 6 16 19 26 32 45 77
6 13 13 10 0 0 3 3 0 0 0 3 0 0 0 0 0 0 0 0 0 0 0 0 0 0 0 0 0 0 0 0 0 0 0 0 3 13 13 16 16 23 32
3 10 13 10 6 0 0 0 0 0 0 0 0 0 0 0 0 0 0 0 0 0 0 0 0 0 0 0 0 0 0 0 0 0 0 0 0 0 6 16 13 16 13
3 6 10 10 6 3 0 0 0 0 0 0 0 0 0 0 0 0 0 0 0 0 0 0 0 0 0 0 0 0 0 0 0 0 0 0 0 0 0 3 6 10 6
3 3 3 3 0 0 0 0 0 0 0 0 0 0 0 0 0 0 0 0 0 0 0 0 0 0 0 0 0 0 0 0 0 0 0 0 0 0 0 0 3 3 6
0 0 0 0 0 0 0 0 0 0 0 0 0 0 0 0 0 0 0 0 0 0 0 0 0 0 0 0 0 0 0 0 0 0 0 0 0 0 0 0 0 0 3
0 0 0 3 0 0 0 0 0 0 0 0 0 0 0 0 0 0 0 0 0 0 0 0 0 0 0 0 0 0 0 0 0 0 0 0 0 0 0 0 0 0 0
Height
5886 5887 5888 5888 5889 5890 5891 5892 5892 5893 5893 5893 5893 5893 5894 5894 5894 5894 5894 5894 5894 5894 5894 5894 5894 5894 5894 5894 5894 5894 5894 5894 5893 5893 5893 5893 5893 5893 5892 5892 5892 5893 5892
5885 5886 5887 5888 5889 5890 5890 5891 5892 5893 5893 5893 5894 5894 5894 5894 5895 5895 5895 5895 5895 5895 5895 5895 5895 5895 5895 5895 5894 5894 5894 5894 5894 5894 5894 5894 5894 5894 5894 5894 5894 5894 5894
5884 5885 5886 5887 5888 5889 5890 5891 5892 5892 5893 5893 5893 5894 5894 5894 5895 5895 5895 5895 5895 5896 5896 5896 5896 5895 5895 5895 5895 5895 5895 5895 5895 5895 5895 5895 5895 5895 5895 5895 5895 5895 5895
5883 5884 5884 5886 5887 5888 5889 5890 5891 5892 5892 5893 5893 5893 5894 5894 5894 5895 5895 5895 5896 5896 5896 5896 5896 5896 5896 5896 5896 5896 5896 5896 5896 5896 5896 5896 5896 5896 5896 5896 5896 5896 5897
5882 5882 5883 5884 5885 5887 5888 5889 5890 5891 5891 5892 5893 5893 5893 5894 5894 5895 5895 5895 5896 5896 5896 5896 5896 5896 5896 5896 5896 5896 5896 5896 5897 5897 5897 5897 5897 5897 5897 5897 5898 5898 5898
5880 5880 5881 5882 5884 5885 5886 5887 5889 5890 5890 5891 5892 5892 5893 5893 5894 5894 5895 5895 5895 5896 5896 5896 5896 5897 5897 5897 5897 5897 5897 5897 5897 5897 5898 5898 5898 5898 5898 5899 5899 5899 5899
5878 5878 5879 5880 5881 5883 5884 5886 5887 5888 5889 5890 5891 5891 5892 5892 5893 5893 5894 5894 5895 5895 5895 5895 5896 5896 5896 5897 5897 5897 5897 5897 5898 5898 5898 5898 5899 5899 5899 5899 5899 5899 5900
5876 5876 5877 5878 5879 5881 5882 5884 5885 5887 5888 5888 5889 5890 5891 5891 5892 5892 5893 5893 5894 5894 5894 5895 5895 5895 5896 5896 5896 5896 5897 5897 5898 5898 5898 5899 5899 5899 5900 5900 5900 5900 5900
5873 5874 5875 5876 5877 5879 5880 5882 5883 5885 5886 5887 5888 5889 5889 5890 5890 5891 5892 5892 5893 5893 5893 5894 5894 5894 5895 5895 5896 5896 5896 5897 5897 5898 5898 5898 5899 5899 5900 5900 5901 5901 5901
5870 5871 5872 5873 5875 5876 5878 5880 5881 5883 5884 5885 5886 5887 5887 5888 5889 5889 5890 5891 5891 5891 5892 5892 5892 5893 5894 5894 5894 5895 5896 5896 5897 5897 5898 5898 5899 5899 5899 5900 5901 5901 5901
5867 5868 5869 5871 5873 5874 5876 5877 5879 5880 5882 5883 5884 5884 5885 5886 5887 5888 5888 5889 5889 5889 5890 5890 5890 5891 5892 5892 5893 5893 5894 5895 5896 5896 5897 5897 5898 5898 5899 5899 5900 5901 5901
5864 5865 5867 5868 5870 5871 5873 5875 5876 5877 5879 5880 5881 5882 5883 5884 5885 5886 5886 5887 5887 5887 5887 5888 5888 5889 5889 5890 5890 5891 5892 5893 5894 5895 5895 5896 5896 5897 5898 5898 5899 5900 5901
5862 5862 5864 5865 5867 5868 5870 5872 5873 5874 5876 5877 5879 5880 5880 5881 5882 5883 5884 5884 5884 5884 5885 5885 5885 5886 5887 5887 5888 5889 5890 5891 5892 5893 5893 5894 5895 5895 5896 5897 5898 5899 5900
5859 5859 5860 5862 5864 5865 5867 5869 5870 5872 5873 5875 5876 5877 5878 5879 5880 5881 5881 5881 5881 5882 5882 5882 5883 5883 5884 5884 5885 5886 5887 5888 5889 5890 5891 5892 5893 5894 5895 5896 5897 5898 5899
5857 5857 5858 5859 5861 5862 5864 5866 5867 5869 5870 5872 5873 5874 5875 5876 5877 5878 5879 5879 5879 5879 5879 5880 5880 5881 5881 5881 5882 5883 5884 5885 5886 5887 5888 5889 5890 5891 5892 5893 5895 5896 5897
5854 5854 5856 5856 5858 5859 5861 5863 5864 5866 5867 5868 5870 5871 5872 5873 5874 5875 5876 5877 5877 5877 5877 5878 5878 5878 5878 5878 5879 5880 5880 5882 5883 5884 5885 5886 5887 5888 5889 5890 5892 5893 5895
5851 5852 5853 5853 5854 5857 5859 5861 5862 5863 5864 5866 5867 5869 5870 5871 5872 5873 5874 5875 5875 5875 5875 5875 5875 5876 5876 5876 5876 5877 5877 5878 5879 5881 5882 5883 5884 5884 5885 5886 5888 5890 5892
5848 5849 5849 5851 5852 5854 5855 5858 5860 5861 5862 5863 5865 5866 5868 5869 5870 5871 5872 5873 5872 5872 5872 5873 5873 5873 5873 5873 5873 5874 5874 5875 5876 5877 5878 5879 5880 5881 5882 5883 5885 5887 5888
5847 5848 5847 5849 5850 5852 5854 5855 5857 5858 5860 5861 5863 5864 5865 5866 5867 5869 5870 5870 5870 5870 5870 5870 5870 5871 5870 5870 5870 5870 5871 5871 5872 5873 5874 5875 5876 5878 5878 5879 5881 5883 5884
5845 5846 5846 5848 5848 5850 5852 5854 5855 5856 5858 5859 5861 5862 5863 5864 5865 5866 5867 5868 5868 5868 5868 5868 5868 5868 5868 5868 5868 5868 5868 5868 5869 5870 5870 5871 5872 5873 5874 5875 5877 5878 5880
5844 5844 5845 5846 5847 5848 5850 5852 5853 5855 5856 5858 5859 5860 5861 5862 5863 5864 5865 5865 5865 5865 5865 5865 5865 5865 5865 5865 5865 5865 5865 5865 5866 5866 5867 5868 5868 5869 5870 5871 5872 5874 5875
5842 5843 5844 5845 5847 5848 5849 5851 5852 5853 5855 5856 5858 5859 5860 5860 5861 5862 5863 5863 5863 5863 5863 5863 5863 5863 5862 5862 5862 5862 5862 5863 5862 5862 5863 5864 5864 5865 5866 5867 5868 5869 5870
5842 5842 5843 5845 5846 5847 5848 5849 5851 5852 5853 5855 5856 5857 5858 5859 5859 5860 5861 5861 5861 5861 5861 5861 5860 5860 5860 5860 5859 5859 5859 5859 5859 5859 5859 5860 5860 5861 5862 5862 5863 5864 5865
5842 5842 5843 5844 5845 5846 5847 5849 5850 5851 5853 5854 5855 5856 5857 5857 5858 5858 5859 5859 5859 5859 5859 5859 5858 5858 5858 5857 5857 5856 5857 5856 5856 5856 5856 5856 5856 5857 5857 5858 5859 5860 5860
5841 5841 5842 5843 5844 5845 5847 5848 5849 5851 5852 5853 5854 5855 5856 5856 5857 5857 5857 5858 5858 5857 5857 5857 5857 5856 5856 5855 5855 5854 5854 5853 5853 5853 5853 5853 5853 5853 5854 5854 5854 5855 5855
5841 5841 5842 5843 5844 5845 5846 5848 5849 5850 5851 5852 5853 5854 5855 5855 5855 5856 5856 5856 5856 5856 5856 5855 5855 5854 5854 5853 5853 5852 5851 5851 5850 5850 5850 5849 5849 5849 5849 5849 5850 5850 5851
Wind_Speed
5 4 5 4 4 3 2 2 1 1 1 1 0 1 1 2 2 2 1 2 3 4 4 5 5 6 6 6 5 5 5 5 5 6 6 6 7 7 8 8 8 8 8
6 5 5 5 5 4 4 3 3 3 2 2 1 1 1 0 0 0 1 1 2 2 3 3 4 4 4 5 5 5 5 5 5 5 6 6 6 7 8 8 8 8 8
6 7 7 7 7 6 5 4 4 4 4 3 3 2 2 2 1 1 1 1 0 1 1 2 2 3 3 3 3 4 4 4 4 4 5 6 6 6 7 7 7 8 8
7 8 8 8 8 8 7 6 6 5 5 4 4 3 3 3 3 3 2 2 2 2 1 1 1 1 2 2 2 3 3 3 4 4 5 5 5 6 6 7 7 8 7
8 8 9 10 10 10 9 8 7 7 6 6 5 5 4 4 4 4 4 4 3 3 2 2 2 1 1 2 2 2 3 3 4 4 4 4 5 6 6 7 7 7 7
9 9 10 11 11 11 10 9 9 8 8 7 6 6 6 5 5 5 5 6 5 5 4 3 3 3 2 2 1 2 2 2 3 3 4 4 5 5 5 6 6 7 7
10 11 11 12 12 12 12 11 10 10 9 9 8 8 7 7 6 6 6 7 7 6 6 5 5 4 4 3 3 2 2 3 3 3 3 3 4 4 5 5 6 6 6
10 11 12 13 13 13 13 12 11 11 10 10 9 9 9 8 8 8 7 8 8 8 8 7 7 6 6 5 5 4 3 3 3 3 3 2 3 4 4 4 5 6 6
11 11 12 13 14 14 14 14 13 12 11 10 10 10 9 9 9 9 9 9 9 9 10 9 9 8 8 7 6 6 5 4 5 4 4 3 4 4 4 4 4 5 6
12 13 13 14 14 15 15 15 14 13 12 12 11 11 11 10 10 10 10 10 11 11 11 11 11 10 9 8 8 8 7 7 6 6 5 5 4 5 4 4 4 5 5
12 13 13 14 14 15 16 16 15 14 13 12 12 12 12 12 11 11 11 11 12 12 12 12 12 12 11 10 10 10 9 9 8 8 8 7 6 6 5 5 5 5 5
12 12 13 13 14 15 16 17 17 15 15 13 13 14 14 13 13 12 12 12 12 13 13 13 13 13 13 12 12 12 11 11 10 10 10 10 9 8 7 7 7 7 6
11 12 13 14 14 14 16 16 16 16 15 15 15 15 15 14 13 13 12 12 13 13 13 14 14 14 14 13 13 13 13 13 12 12 12 10 10 10 9 8 8 8 8
12 12 12 13 14 15 16 15 15 16 17 16 15 14 14 14 13 12 12 13 12 13 12 13 14 14 14 15 15 15 15 15 14 12 12 12 12 11 11 10 10 10 9
12 12 11 12 12 13 13 14 14 15 15 16 15 14 14 14 12 12 12 12 12 11 11 11 12 13 14 15 15 15 15 16 15 15 15 13 14 13 13 12 12 12 11
11 11 12 11 11 12 12 13 13 13 14 14 14 13 13 12 11 11 11 10 10 10 11 11 12 12 14 14 15 14 14 15 16 16 16 16 16 16 15 15 14 13 13
9 11 12 12 11 11 12 13 12 12 12 13 13 12 11 11 10 10 10 10 10 10 11 11 12 12 12 14 15 16 16 15 16 17 17 18 17 17 16 16 16 16 15
6 9 9 10 10 10 11 12 11 10 10 10 11 11 10 10 9 9 10 10 9 10 10 10 11 11 12 13 13 15 15 16 15 17 18 18 18 18 18 18 18 17 17
6 8 7 7 8 8 9 10 9 9 9 10 10 10 10 10 9 9 9 9 9 10 10 10 10 11 11 12 13 14 15 16 16 16 17 17 18 19 19 20 20 19 19
5 6 6 8 8 8 8 10 9 9 9 8 8 9 9 8 8 8 8 9 9 9 9 9 10 10 11 12 12 13 14 15 15 16 16 17 18 19 19 20 20 21 21
4 5 6 7 7 8 8 9 9 9 8 7 7 7 7 7 7 7 7 8 8 8 8 8 9 10 11 11 12 12 12 13 14 15 16 16 17 18 19 20 21 21 22
4 5 5 6 7 7 7 7 7 8 8 7 6 6 6 6 6 6 6 6 6 7 7 8 9 10 10 10 11 12 12 12 13 14 15 16 17 17 18 19 21 22 22
4 5 5 5 6 6 7 7 7 7 7 7 6 5 5 5 5 5 5 5 5 6 6 7 7 8 9 9 10 11 11 12 12 12 13 14 16 17 18 19 20 22 22
4 5 5 6 6 6 6 7 6 6 7 6 5 5 4 4 4 4 4 4 4 4 4 5 6 6 7 7 8 9 10 10 11 12 13 14 15 16 18 19 19 21 22
4 4 5 6 7 7 6 7 7 7 7 6 5 4 3 2 2 2 2 2 2 2 3 4 4 5 6 6 6 8 9 10 10 11 13 13 14 16 16 18 19 20 21
4 5 6 6 7 7 7 7 7 7 7 6 5 4 3 2 2 1 1 1 1 2 2 3 4 4 5 6 6 7 8 9 10 10 12 13 14 15 15 16 18 20 21
Wind_Direction
229 224 222 213 203 197 203 222 242 267 287 311 290 130 89 97 102 109 102 103 103 100 103 108 110 110 110 110 110 108 106 104 103 102 96 95 95 98 98 100 100 97 98
237 231 231 225 220 214 211 221 237 245 256 269 270 271 253 85 75 105 138 133 118 106 104 105 113 116 117 116 118 119 116 107 103 102 99 97 97 100 104 102 99 98 101
243 235 234 234 227 221 217 220 233 244 249 253 259 265 258 257 267 271 252 230 182 153 129 112 112 124 128 130 124 120 120 116 110 106 103 101 103 107 106 104 104 103 105
239 237 232 233 230 228 224 226 231 239 246 247 250 254 254 251 253 265 260 256 249 238 233 221 172 148 144 145 139 132 126 122 123 115 107 106 109 111 110 109 109 109 109
234 234 229 228 228 230 228 229 233 237 243 245 246 248 249 251 254 257 257 256 259 256 254 254 254 245 189 165 163 144 138 136 127 120 116 117 118 120 118 114 114 114 115
235 234 229 228 226 228 230 233 237 239 240 242 244 245 247 250 256 259 256 255 261 262 260 258 260 265 261 243 215 185 160 152 136 134 128 126 127 127 124 120 118 118 119
240 236 233 228 227 227 231 235 239 239 239 240 244 246 247 249 253 257 257 256 259 263 263 262 261 263 263 261 253 236 202 183 170 159 149 140 139 137 132 128 125 121 123
248 239 235 230 228 229 231 235 238 240 242 244 247 247 247 250 253 254 258 260 261 262 264 265 264 262 261 257 254 252 243 220 203 184 181 174 159 148 144 139 136 131 129
247 242 242 237 232 231 232 235 238 240 243 247 248 248 250 249 250 253 257 261 264 264 265 266 266 263 260 257 253 250 248 243 236 224 213 202 186 174 164 156 152 144 142
245 243 243 235 234 234 234 235 239 239 241 246 249 249 249 249 249 252 257 261 263 266 266 265 267 265 262 259 255 252 250 249 246 242 232 221 218 201 186 178 173 166 160
250 244 241 238 236 237 236 236 239 238 239 244 247 249 250 250 250 252 257 261 264 266 266 265 266 264 259 257 255 254 253 253 248 246 244 241 234 218 211 204 195 189 182
253 246 242 241 239 239 238 238 239 240 241 241 244 246 249 250 250 252 257 261 264 265 264 264 263 261 259 258 256 254 253 253 249 250 251 249 240 230 225 220 212 206 201
255 249 247 240 237 239 236 237 239 240 239 240 244 248 250 249 251 253 257 261 263 264 264 263 261 259 259 258 256 253 252 252 251 251 250 249 244 237 232 228 223 215 213
258 249 243 239 239 238 236 235 238 239 239 240 245 249 251 251 251 253 259 262 264 266 265 262 259 259 259 256 257 257 252 251 252 248 247 248 248 244 235 233 229 226 223
259 254 241 243 238 232 232 234 239 241 241 240 241 248 250 249 249 252 260 263 265 265 264 263 260 261 260 258 258 258 253 251 251 249 248 247 245 244 239 236 236 234 232
259 248 235 234 230 230 231 231 234 238 237 238 239 245 247 244 245 251 255 259 265 268 266 262 261 262 259 256 255 255 255 252 251 249 249 250 248 246 241 237 236 235 237
254 249 244 233 230 224 223 225 230 232 233 234 235 236 237 238 242 244 251 255 262 266 265 264 264 264 259 257 256 256 257 254 250 248 249 248 248 247 243 235 233 236 237
246 245 241 224 223 220 219 221 219 225 229 230 232 233 234 237 238 244 251 255 259 264 265 263 263 263 263 261 259 257 256 254 250 248 250 250 250 249 246 240 235 237 239
249 241 238 220 207 208 213 213 212 216 222 229 232 233 238 242 243 246 249 253 259 263 264 261 260 260 262 262 264 261 258 254 251 250 251 250 251 250 249 244 239 238 240
239 227 219 209 204 200 206 209 209 211 215 219 226 229 232 239 245 250 250 254 261 263 264 261 261 262 263 262 264 264 263 258 254 254 253 251 251 250 249 246 244 241 241
217 204 203 205 203 198 199 204 202 201 205 209 216 217 222 234 242 249 251 256 261 263 264 268 267 268 266 264 263 264 263 262 261 258 256 253 252 252 251 248 246 247 246
184 179 175 184 188 193 187 185 189 194 200 202 206 216 225 231 238 246 250 253 259 262 265 268 270 271 270 268 266 265 264 263 261 260 258 256 253 252 252 250 249 249 247
178 174 174 180 179 178 180 186 188 192 198 202 209 213 216 219 225 237 247 255 263 264 267 271 272 272 271 269 267 266 266 265 265 261 259 258 255 255 254 251 249 250 249
161 167 174 173 169 169 172 177 182 182 182 182 189 195 201 210 224 238 247 257 262 265 268 272 273 272 274 274 273 270 270 268 267 264 261 259 256 256 256 254 252 248 249
142 148 160 163 165 166 165 169 171 170 171 172 173 174 175 185 202 209 232 247 257 269 275 277 277 279 280 279 279 278 275 272 270 267 264 262 260 258 259 258 254 249 249
135 140 148 155 161 164 163 161 160 162 163 164 162 161 156 150 153 172 198 221 273 296 296 296 298 296 292 289 288 286 282 278 277 276 274 272 269 266 264 261 258 254 252